Flag for France Weather past 2 weeks in Istres, France

Now
68 °F

Sunny.


Feels Like: 68 °F
Forecast: 60 / 74 °F
Wind: 26 mph from North

Location: Istres Airport

Current Time: May 22, 2015 at 10:13:46 PM

Latest Report: May 22, 2015 at 9:30 PM


Visibility: 10 mi

Pressure: 29.92 "Hg

Humidity: 28%

Dew point: 34 °F

Location of IstresLocation

Historic Weather in Istres — Graph

°F

Istres temperature yesterday

Maximum temperature yesterday: 66 °F (at 2:30 PM)
Minimum temperature yesterday: 50 °F (at 6:00 AM)
Average temperature yesterday: 59 °F

Past Weeks' High & Low Weather Summary

 TemperatureHumidityPressure
High84 °F (May 14, 2:00 PM)100% (May 12, 4:00 AM)30.27 "Hg (May 12, 4:00 AM)
Low50 °F (May 21, 6:00 AM)21% (May 20, 3:30 PM)29.74 "Hg (May 14, 6:30 PM)
Average65 °F58%30.03 "Hg
* Reported May 7 9:00 PM — May 22 9:00 PM, Istres, Weather by CustomWeather, © 2015

Note: Actual official high and low records may vary slightly from our data, if they occured in-between our weather recording intervals... More about our weather records

Advertising

Istres weather history for previous 24 hours

 ConditionsComfort  
Time TempWeatherWind HumidityBarometerVisibility
9:00 PM
Fri, May 22
68 °FSunny.31 mph28%29.92 "Hg10 mi
8:30 PM68 °FSunny.30 mph28%29.92 "Hg10 mi
8:00 PM70 °FSunny.33 mph27%29.92 "Hg10 mi
7:30 PM70 °FPassing clouds.29 mph29%29.92 "HgN/A
7:00 PM72 °FSunny.31 mph27%29.92 "Hg10 mi
6:30 PM72 °FSunny.31 mph27%29.92 "Hg10 mi
6:00 PM72 °FSunny.30 mph27%29.95 "Hg10 mi
5:30 PM72 °FSunny.25 mph27%29.95 "Hg10 mi
5:00 PM73 °FSunny.29 mph25%29.95 "Hg10 mi
4:30 PM73 °FSunny.24 mph25%29.95 "Hg10 mi
4:00 PM73 °FSunny.25 mph25%29.95 "Hg10 mi
3:30 PM73 °FSunny.23 mph25%29.98 "Hg10 mi
3:00 PM72 °FSunny.23 mph27%29.98 "Hg10 mi
2:30 PM72 °FSunny.23 mph27%29.98 "Hg10 mi
2:00 PM72 °FSunny.21 mph29%29.98 "Hg10 mi
1:30 PM72 °FPassing clouds.21 mph29%30.01 "HgN/A
1:00 PM70 °FSunny.23 mph29%30.01 "Hg10 mi
12:30 PM70 °FSunny.23 mph31%30.01 "Hg10 mi
12:00 PM68 °FSunny.24 mph28%30.01 "Hg10 mi
11:30 AM66 °FSunny.21 mph32%30.04 "Hg10 mi
11:00 AM66 °FSunny.24 mph32%30.04 "Hg10 mi
10:30 AM64 °FSunny.23 mph34%30.04 "Hg10 mi
10:00 AM63 °FSunny.22 mph37%30.04 "Hg10 mi
9:30 AM63 °FSunny.20 mph39%30.04 "Hg10 mi
9:00 AM61 °FSunny.18 mph42%30.04 "Hg10 mi
8:30 AM59 °FSunny.17 mph45%30.04 "Hg10 mi
8:00 AM59 °FSunny.20 mph45%30.04 "Hg10 mi
7:30 AM57 °FPassing clouds.13 mph48%30.04 "HgN/A
7:00 AM57 °FClear.16 mph44%30.04 "Hg10 mi
6:30 AM57 °FClear.17 mph44%30.04 "Hg10 mi
6:00 AM57 °FClear.16 mph44%30.04 "Hg10 mi
5:30 AM57 °FRefreshingly cool.15 mph44%30.04 "HgN/A
5:00 AM57 °FRefreshingly cool.15 mph44%30.04 "HgN/A
4:30 AM57 °FRefreshingly cool.18 mph44%30.04 "HgN/A
4:00 AM57 °FRefreshingly cool.20 mph44%30.04 "HgN/A
3:30 AM59 °FRefreshingly cool.18 mph42%30.04 "HgN/A
3:00 AM59 °FRefreshingly cool.24 mph42%30.04 "HgN/A
2:30 AM59 °FRefreshingly cool.24 mph42%30.07 "HgN/A
2:00 AM59 °FClear.26 mph42%30.07 "Hg10 mi
1:30 AM61 °FClear.26 mph39%30.07 "Hg10 mi
1:00 AM61 °FClear.26 mph39%30.07 "Hg10 mi
12:30 AM61 °FClear.29 mph36%30.07 "Hg10 mi
12:00 AM61 °FClear.28 mph36%30.07 "Hg10 mi
11:30 PM
Thu, May 21
63 °FClear.29 mph34%30.07 "Hg10 mi
11:00 PM63 °FClear.30 mph32%30.07 "Hg10 mi
10:30 PM63 °FClear.32 mph32%30.07 "Hg10 mi
10:00 PM63 °FSunny.28 mph32%30.07 "Hg10 mi
Weather by CustomWeather, © 2015

See weather overviewHow to use our weather pages